Location: Bathsheba
(13.2167°N, 59.5167°W)
Time: 23:30:06
(UTC+00:00)

Cosmos 1943 - Pass Details

Date: 18 September 2020
Orbit: 833 x 850 km, 71.0° (Epoch: 20 October)

Event Time Altitude Azimuth Distance (km) Brightness Sun altitude
Rises 23:17:28 0° 356° (N) 3,390 6.5 -20.5°
Reaches altitude 10° 23:20:04 10° 4° (N) 2,457 5.6 -21.1°
Enters shadow 23:24:41 38° 56° (NE) 1,259 3.7 -22.2°
